Location: Rounton
(54.4000°N, 1.3500°W)
Time: 14:20:25
(UTC+00:00)

Transit 4A - Pass Details

Date: 02 December 2021
Orbit: 864 x 981 km, 66.8° (Epoch: 18 January)

Event Time Altitude Azimuth Distance (km) Brightness Sun altitude
Rises 01:01:14 0° 301° (WNW) 3,546 - -55.2°
Reaches altitude 10° 01:04:08 10° 314° (NW) 2,623 - -55.0°
Maximum altitude 01:09:17 27° 11° (NNE) 1,711 - -54.7°
Drops below altitude 10° 01:14:34 10° 69° (ENE) 2,689 - -54.2°
Sets 01:17:34 0° 81° (E) 3,650 - -54.0°
